FW1480 Weather Reports


time (UTC)temp
C
wind
direction
speed
KPH
gust
KPH
rain 1hr
cm
rain 24hr
cm
rain mn
cm
humidity
%
barometer
mb
20260504140725 16 221 1.6 14.5 0.00 0.00 0.00 43 1013.9
20260504140225 16 308 1.6 14.5 0.00 0.00 0.00 44 1013.9
20260504130719 13 212 0.0 3.2 0.00 0.00 0.00 52 1014.2
20260504130219 13 180 0.0 3.2 0.00 0.00 0.00 54 1014.3
20260504120122 -17 0.0 0.0 0.00 0.00 0.00 1014.5
20260504110218 -17 0.0 0.0 0.00 0.00 0.00 1014.2
20260504081812 6 310 0.0 0.0 0.00 0.00 0.00 67 1013.8
20260504080756 6 311 0.0 0.0 0.00 0.00 0.00 67 1013.6
20260504080251 6 311 0.0 0.0 0.00 0.00 0.00 67 1013.6
20260504070248 6 97 0.0 0.0 0.00 0.00 0.00 66 1013.5
20260504060248 6 34 0.0 0.0 0.00 0.00 0.00 65 1013.4
20260504050645 6 4 0.0 0.0 0.00 0.00 0.00 65 1013.3
20260504050145 7 4 0.0 0.0 0.00 0.00 0.00 64 1013.2
20260504045645 7 4 0.0 0.0 0.00 0.00 0.00 62 1013.3
20260504045145 7 4 0.0 0.0 0.00 0.00 0.00 62 1013.2
20260504043640 7 348 0.0 0.0 0.00 0.00 0.00 61 1013.3
20260504043137 7 349 0.0 0.0 0.00 0.00 0.00 61 1013.2
20260504042638 7 348 0.0 0.0 0.00 0.00 0.00 61 1013.2
20260504042138 7 347 0.0 0.0 0.00 0.00 0.00 62 1013.2
20260504041637 6 347 0.0 0.0 0.00 0.00 0.00 63 1013.2
20260504040632 7 347 0.0 0.0 0.00 0.00 0.00 63 1013.2
20260504040131 7 347 0.0 0.0 0.00 0.00 0.00 62 1013.2
20260504035628 7 347 0.0 0.0 0.00 0.00 0.00 57 1013.1
20260504035126 7 347 0.0 0.0 0.00 0.00 0.00 57 1013.1
20260504034624 7 347 0.0 0.0 0.00 0.00 0.00 58 1013.1
20260504034120 7 347 0.0 0.0 0.00 0.00 0.00 58 1013.0
20260504033622 7 347 0.0 0.0 0.00 0.00 0.00 59 1013.0
20260504033121 7 347 0.0 0.0 0.00 0.00 0.00 59 1013.1
20260504032621 7 347 0.0 0.0 0.00 0.00 0.00 59 1013.1
20260504031621 7 347 0.0 0.0 0.00 0.00 0.00 59 1013.1
20260504031118 7 347 0.0 0.0 0.00 0.00 0.00 58 1013.1
20260504030619 7 347 0.0 0.0 0.00 0.00 0.00 58 1013.0
20260504030118 7 347 0.0 0.0 0.00 0.00 0.00 58 1013.0
20260504025619 7 347 0.0 0.0 0.00 0.00 0.00 57 1013.0
20260504025120 7 347 0.0 0.0 0.00 0.00 0.00 57 1013.0
20260504024619 7 347 0.0 0.0 0.00 0.00 0.00 58 1013.0
20260504024118 7 347 0.0 0.0 0.00 0.00 0.00 57 1013.1
20260504023118 7 347 0.0 0.0 0.00 0.00 0.00 58 1013.1
20260504022619 7 347 0.0 0.0 0.00 0.00 0.00 57 1013.2
20260504022120 7 347 0.0 0.0 0.00 0.00 0.00 57 1013.2
20260504021618 7 347 0.0 0.0 0.00 0.00 0.00 55 1013.2
20260504021119 7 347 0.0 0.0 0.00 0.00 0.00 55 1013.2
20260504020119 8 347 0.0 0.0 0.00 0.00 0.00 54 1013.1
20260504015618 8 347 0.0 0.0 0.00 0.00 0.00 54 1013.0
20260504015120 8 347 0.0 0.0 0.00 0.00 0.00 53 1013.0
20260504014619 8 347 0.0 0.0 0.00 0.00 0.00 54 1013.1
20260504014118 8 347 0.0 0.0 0.00 0.00 0.00 53 1013.0
20260504013120 8 347 0.0 0.0 0.00 0.00 0.00 52 1013.1
20260504012619 8 347 0.0 0.0 0.00 0.00 0.00 51 1013.0
20260504012120 8 347 0.0 0.0 0.00 0.00 0.00 50 1012.9
20260504011620 9 347 0.0 0.0 0.00 0.00 0.00 51 1012.9
20260504011118 9 6 0.0 0.0 0.00 0.00 0.00 48 1012.8
20260504010620 9 118 0.0 0.0 0.00 0.00 0.00 49 1012.8
20260504010117 9 118 0.0 0.0 0.00 0.00 0.00 48 1012.7
20260504005618 9 118 0.0 0.0 0.00 0.00 0.00 48 1012.5
20260504005114 9 118 0.0 0.0 0.00 0.00 0.00 47 1012.4
20260504004616 9 118 0.0 0.0 0.00 0.00 0.00 47 1012.3
20260504003607 10 118 0.0 0.0 0.00 0.00 0.00 46 1012.2
20260504002555 10 118 0.0 0.0 0.00 0.00 0.00 45 1012.0
20260504002050 10 118 0.0 0.0 0.00 0.00 0.00 46 1011.9
20260504001543 10 98 0.0 0.0 0.00 0.00 0.00 45 1011.7
20260504000530 10 147 0.0 0.0 0.00 0.00 0.00 44 1011.5
20260504000025 10 333 0.0 0.0 0.00 0.00 0.00 43 1011.5
20260503235519 10 333 0.0 0.0 0.00 0.00 0.00 43 1011.6
20260503235013 10 333 0.0 0.0 0.00 0.00 0.00 41 1011.5
20260503234514 11 330 0.0 0.0 0.00 0.00 0.00 41 1011.4
20260503233006 11 276 0.0 0.0 0.00 0.00 0.00 41 1011.3
20260503232507 11 119 0.0 0.0 0.00 0.00 0.00 36 1011.2
20260503232007 11 124 0.0 0.0 0.00 0.00 0.00 38 1011.2
20260503231505 11 124 0.0 0.0 0.00 0.00 0.00 39 1011.1
20260503231002 11 122 0.0 0.0 0.00 0.00 0.00 37 1011.2
20260503225959 12 94 0.0 0.0 0.00 0.00 0.00 35 1011.1
20260503224955 12 96 0.0 1.6 0.00 0.00 0.00 34 1010.9
20260503224454 12 155 0.0 1.6 0.00 0.00 0.00 34 1010.9
20260503223951 12 112 0.0 1.6 0.00 0.00 0.00 34 1010.8
20260503223449 12 160 0.0 9.7 0.00 0.00 0.00 33 1010.8
20260503222946 12 198 0.0 9.7 0.00 0.00 0.00 34 1010.7
20260503222446 12 49 0.0 1.6 0.00 0.00 0.00 35 1010.7
20260503221947 12 112 0.0 4.8 0.00 0.00 0.00 35 1010.8
20260503221445 12 59 0.0 4.8 0.00 0.00 0.00 33 1010.7
20260503220944 12 155 0.0 9.7 0.00 0.00 0.00 34 1010.7
20260503220447 12 305 0.0 9.7 0.00 0.00 0.00 33 1010.8
20260503215940 12 317 0.0 9.7 0.00 0.00 0.00 35 1010.8
20260503215435 12 47 0.0 9.7 0.00 0.00 0.00 34 1010.7
20260503213916 12 41 0.0 11.3 0.00 0.00 0.00 36 1010.9
20260503213410 12 93 0.0 11.3 0.00 0.00 0.00 37 1010.8
20260503212904 12 133 0.0 11.3 0.00 0.00 0.00 39 1010.7
20260503212358 12 240 0.0 11.3 0.00 0.00 0.00 36 1010.7
20260503211853 12 115 0.0 3.2 0.00 0.00 0.00 38 1010.8
20260503211345 11 157 0.0 3.2 0.00 0.00 0.00 37 1010.7
20260503210838 12 296 0.0 8.0 0.00 0.00 0.00 38 1010.7
20260503210339 12 224 0.0 8.0 0.00 0.00 0.00 37 1010.8
20260503205840 12 3 0.0 1.6 0.00 0.00 0.00 38 1010.8
20260503205338 12 155 0.0 1.6 0.00 0.00 0.00 39 1010.8
20260503204836 12 120 0.0 11.3 0.00 0.00 0.00 39 1010.7
20260503204336 12 244 0.0 11.3 0.00 0.00 0.00 39 1010.7
20260503203836 12 125 0.0 8.0 0.00 0.00 0.00 39 1010.6
20260503203333 12 30 1.6 16.1 0.00 0.00 0.00 41 1010.7
20260503202335 12 288 1.6 16.1 0.00 0.00 0.00 39 1010.7
20260503201832 12 68 1.6 16.1 0.00 0.00 0.00 40 1010.7
20260503201331 12 75 0.0 9.7 0.00 0.00 0.00 41 1010.8
20260503200831 12 23 0.0 8.0 0.00 0.00 0.00 40 1010.8
20260503200332 12 198 1.6 8.0 0.00 0.00 0.00 41 1010.8
20260503195833 12 225 1.6 9.7 0.00 0.00 0.00 40 1010.9
20260503195328 12 50 1.6 17.7 0.00 0.00 0.00 40 1011.0
20260503194829 11 114 1.6 17.7 0.00 0.00 0.00 40 1010.9
20260503194328 12 316 0.0 6.4 0.00 0.00 0.00 40 1010.9
20260503193828 11 101 0.0 4.8 0.00 0.00 0.00 40 1010.9
20260503192828 12 349 1.6 14.5 0.00 0.00 0.00 39 1011.0
20260503192328 11 181 1.6 14.5 0.00 0.00 0.00 40 1011.1
20260503191828 11 117 1.6 14.5 0.00 0.00 0.00 41 1011.1
20260503191329 11 293 1.6 19.3 0.00 0.00 0.00 41 1011.2
20260503190829 11 141 1.6 19.3 0.00 0.00 0.00 40 1011.1
20260503190328 11 65 1.6 14.5 0.00 0.00 0.00 42 1011.2
20260503185827 11 171 1.6 6.4 0.00 0.00 0.00 41 1011.1
20260503184827 10 141 0.0 8.0 0.00 0.00 0.00 44 1011.1
20260503184328 10 278 1.6 14.5 0.00 0.00 0.00 44 1011.1
20260503183826 10 134 1.6 14.5 0.00 0.00 0.00 44 1011.3
20260503183327 10 128 0.0 8.0 0.00 0.00 0.00 43 1011.1
20260503182826 11 313 0.0 11.3 0.00 0.00 0.00 42 1011.2
20260503182326 11 38 1.6 12.9 0.00 0.00 0.00 42 1011.2
20260503181826 11 219 0.0 12.9 0.00 0.00 0.00 42 1011.2
20260503180823 10 113 0.0 11.3 0.00 0.00 0.00 42 1011.2
20260503180323 11 117 0.0 6.4 0.00 0.00 0.00 41 1011.1
20260503175819 11 148 0.0 3.2 0.00 0.00 0.00 42 1011.1
20260503175319 11 259 0.0 6.4 0.00 0.00 0.00 40 1011.3
20260503174817 11 162 1.6 6.4 0.00 0.00 0.00 41 1011.2
20260503174316 11 58 1.6 14.5 0.00 0.00 0.00 41 1011.1
20260503173814 11 245 1.6 17.7 0.00 0.00 0.00 40 1011.1
20260503173314 11 148 1.6 17.7 0.00 0.00 0.00 39 1011.3
20260503172815 11 127 0.0 9.7 0.00 0.00 0.00 39 1011.2
20260503172313 12 153 0.0 9.7 0.00 0.00 0.00 42 1011.2
20260503171814 12 200 0.0 9.7 0.00 0.00 0.00 39 1011.3
20260503171314 12 325 0.0 9.7 0.00 0.00 0.00 43 1011.1
20260503170815 11 116 1.6 14.5 0.00 0.00 0.00 42 1011.2
20260503170314 11 116 1.6 14.5 0.00 0.00 0.00 39 1011.2
20260503160202 9 203 1.6 8.0 0.00 0.00 0.00 47 1011.6